Regional Weather Roundup
Issued by NWS Midland/Odessa, TX

Skip options and go directly to product.
Home | Oldest Version | Next Version | Current Version | All | Text Only | Save Text | Print | Product List | Glossary On

Skip product version selection by date and time.   
051
ASUS44 KMAF 240101
RWRMAF
MIDLAND AREA WEATHER ROUNDUP
NATIONAL WEATHER SERVICE MIDLAND TX
800 PM CDT THU JUN 23 2016

...IN SOUTHWEST TEXAS AND SOUTHEAST NEW MEXICO...

CITY           SKY/WX    TMP DP  RH WIND       PRES   REMARKS
ALPINE         SUNNY     90  50  25 SE14G20   30.10R
ANDREWS        FAIR      92  52  25 SE13G18   29.99S
ARTESIA        CLOUDY    97  54  23 SE14      29.94R
BIG SPRING     CLEAR     90  58  34 SE10      30.00S
CARLSBAD       SUNNY     98  50  19 SE16      29.91S
DRYDEN           N/A     93  54  26 SE24G32   29.91F
FORT STOCKTON  SUNNY     92  51  24 SE20G26   29.95S
GUAD PASS      SUNNY     91  46  21 E16       30.11S
HOBBS          SUNNY     91  48  22 SE15      30.01S
MARFA          SUNNY    N/A N/A N/A E17       30.07S
MIDLAND AIRPK  SUNNY     94  51  23 SE15      29.98S
MIDLAND INTL   SUNNY     94  52  24 SE18      29.97S
ODESSA         SUNNY     94  52  24 SE17      29.98S
PECOS          SUNNY     99  53  21 E21       29.88S
PRESIDIO       FAIR     102  50  17 NE14G24   29.86S
SEMINOLE       SUNNY     93  50  23 SE15      30.00S
SNYDER           N/A     89  61  38 SE10      29.99S
WINK           SUNNY     95  55  26 SE15G25   29.92R
$$
...OTHER STATIONS IN TEXAS...

CITY           SKY/WX    TMP DP  RH WIND       PRES   REMARKS
ABILENE        CLEAR     90  61  37 SE10      29.99R
AMARILLO       SUNNY     90  58  33 SE22G28   30.01R
AUSTIN         MOCLDY    88  71  57 S14       29.98R
BROWNSVILLE    CLEAR     85  74  69 SE15      29.98R
CORPUS CHRISTI MOCLDY    84  74  71 SE13G18   29.98S
DALLAS FTW     PTCLDY    91  65  41 S13       29.97R
DEL RIO        CLEAR     94  59  31 E17G23    29.90R
EL PASO        MOSUNNY  101  41  12 W7        29.92S
HOUSTON INT    MOCLDY    85  71  63 S13       30.01S
LUBBOCK        MOSUNNY   91  57  31 SE17      30.02R
SAN ANGELO     CLEAR     92  57  30 SE12      29.96S
SAN ANTONIO    MOCLDY    87  66  49 SE16      29.99R
WACO           CLEAR     90  67  46 SE13      29.98S
WICHITA FALLS  NOT AVBL
$$
...OTHER LOCATIONS IN NEW MEXICO...

CITY           SKY/WX    TMP DP  RH WIND       PRES   REMARKS
ALAMAGORDO     CLOUDY    91  46  21 N14       29.98F
ALBUQUERQUE    CLOUDY    80  54  40 SE21G29   30.19R THUNDER
CANNON AFB     SUNNY     89  55  31 SE14      30.03S
CLOVIS         SUNNY     91  55  29 SE18      30.04S
HOLLOMAN AFB   LGT RAIN  84  57  39 NE16      29.96F
ROSWELL        MOSUNNY   98  49  18 SE15      29.95R
RUIDOSO          N/A     77  43  29 W7        30.27S
SANTA FE       CLOUDY    80  46  30 S16       30.21R THUNDER
TRUTH OR CONSE PTSUNNY   88  46  23 NW18G31   30.07R
TUCUMCARI      CLOUDY    93  50  23 S10       29.98R
$$

USA.gov is the U.S. government's official web portal to all federal, state and local government web resources and services.